Location: Newark
(40.9833°N, 0.0333°W)
Time: 00:56:38
(UTC+00:00)

Altair - All Passes

Search period start: 27 October 2020 00:00
Search period end: 06 November 2020 00:00
Orbit: 1502 x 1682 km, 47.2° (Epoch: 26 October)

Date Brightness Start Highest point End Pass type
(mag) Time Alt. Az. Time Alt. Az. Time Alt. Az.
27 Oct - 04:15:18 10° SSW 04:23:55 46° SE 04:32:49 10° ENE visible
27 Oct - 06:18:55 10° WSW 06:28:17 78° NNW 06:38:02 10° ENE daylight
27 Oct - 08:24:34 10° WNW 08:33:58 60° N 08:43:45 10° E daylight
27 Oct - 10:29:48 10° WNW 10:39:33 86° NNE 10:49:40 10° ESE daylight
27 Oct - 12:34:57 10° WNW 12:43:51 40° SW 12:52:57 10° SSE daylight
28 Oct - 03:50:23 10° SSW 03:58:50 43° SE 04:07:32 10° ENE visible
28 Oct - 05:53:45 10° WSW 06:03:04 81° NNW 06:12:48 10° ENE visible
28 Oct - 07:59:20 10° W 08:08:42 60° N 08:18:26 10° E daylight
28 Oct - 10:04:37 10° WNW 10:14:20 83° NNE 10:24:25 10° ESE daylight
28 Oct - 12:09:41 10° WNW 12:18:44 43° SW 12:28:00 10° SSE daylight
29 Oct - 03:25:30 10° SSW 03:33:46 39° SE 03:42:15 10° ENE visible
29 Oct - 05:28:34 10° WSW 05:37:52 85° NNW 05:47:34 10° ENE visible
29 Oct - 07:34:06 10° W 07:43:25 60° N 07:53:08 10° ENE daylight
29 Oct - 09:39:26 10° WNW 09:49:06 80° NNE 09:59:09 10° ESE daylight
29 Oct - 11:44:27 10° WNW 11:53:36 47° SW 12:03:01 10° SSE daylight
29 Oct - 13:54:23 10° WSW 13:56:38 11° WSW 13:58:53 10° SW daylight
30 Oct - 03:00:38 10° SSW 03:08:42 36° SE 03:16:57 10° ENE visible
30 Oct - 05:03:24 10° WSW 05:12:41 88° NNW 05:22:20 10° ENE visible
30 Oct - 07:08:51 10° W 07:18:09 60° N 07:27:49 10° ENE daylight
30 Oct - 09:14:15 10° WNW 09:23:52 77° NNE 09:33:52 10° ESE daylight
30 Oct - 11:19:13 10° WNW 11:28:28 50° SW 11:38:01 10° SSE daylight
30 Oct - 13:27:48 10° W 13:31:36 13° WSW 13:35:26 10° SW daylight
31 Oct - 02:35:49 10° S 02:43:39 33° SE 02:51:38 10° ENE visible
31 Oct - 04:38:15 10° WSW 04:47:31 88° SSE 04:57:06 10° ENE visible
31 Oct - 06:43:38 10° W 06:52:53 61° N 07:02:31 10° ENE daylight
31 Oct - 08:49:03 10° WNW 08:58:38 74° NNE 09:08:35 10° ESE daylight
31 Oct - 10:53:59 10° WNW 11:03:19 54° SW 11:12:59 10° SSE daylight
31 Oct - 13:01:46 10° W 13:06:33 15° WSW 13:11:25 10° SSW daylight
01 Nov - 02:11:03 10° S 02:18:36 30° SE 02:26:16 10° ENE visible
01 Nov - 04:13:07 10° SW 04:22:21 84° SSE 04:31:53 10° ENE visible
01 Nov - 06:18:23 10° W 06:27:37 61° N 06:37:14 10° ENE daylight
01 Nov - 08:23:52 10° WNW 08:33:24 71° NNE 08:43:18 10° ESE daylight
01 Nov - 10:28:47 10° WNW 10:38:11 58° SW 10:47:55 10° SE daylight
01 Nov - 12:35:58 10° W 12:41:31 17° SW 12:47:09 10° SSW daylight
02 Nov - 01:46:19 10° S 01:53:34 27° SE 02:00:54 10° ENE visible
02 Nov - 03:48:00 10° SW 03:57:11 79° SSE 04:06:40 10° ENE visible
02 Nov - 05:53:09 10° W 06:02:22 62° N 06:11:57 10° ENE visible
02 Nov - 07:58:41 10° WNW 08:08:09 69° NNE 08:18:00 10° E daylight
02 Nov - 10:03:36 10° WNW 10:13:02 62° SW 10:22:49 10° SE daylight
02 Nov - 12:10:19 10° W 12:16:27 19° SW 12:22:44 10° SSW daylight
03 Nov - 01:21:38 10° S 01:28:31 24° SE 01:35:29 10° ENE visible
03 Nov - 03:22:54 10° SW 03:32:02 75° SSE 03:41:27 10° ENE visible
03 Nov - 05:27:55 10° W 05:37:07 63° N 05:46:40 10° ENE visible
03 Nov - 07:33:30 10° WNW 07:42:55 67° NNE 07:52:42 10° E daylight
03 Nov - 09:38:24 10° WNW 09:47:53 66° SW 09:57:42 10° SE daylight
03 Nov - 11:44:45 10° W 11:51:24 21° SW 11:58:12 10° S daylight
04 Nov - 00:57:01 10° S 01:03:30 22° SE 01:10:02 10° E visible
04 Nov - 02:57:49 10° SW 03:06:54 71° SE 03:16:13 10° ENE visible
04 Nov - 05:02:41 10° W 05:11:52 65° NNW 05:21:24 10° ENE visible
04 Nov - 07:08:17 10° WNW 07:17:39 65° NNE 07:27:23 10° E daylight
04 Nov - 09:13:13 10° WNW 09:22:42 70° SW 09:32:34 10° SE daylight
04 Nov - 11:19:16 10° W 11:26:20 23° SW 11:33:35 10° S daylight
05 Nov - 00:32:29 10° SSE 00:38:29 20° SE 00:44:30 10° E visible
05 Nov - 02:32:45 10° SW 02:41:47 66° SE 02:51:01 10° ENE visible
05 Nov - 04:37:27 10° W 04:46:38 66° NNW 04:56:09 10° ENE visible
05 Nov - 06:43:05 10° WNW 06:52:25 64° NNE 07:02:05 10° E daylight
05 Nov - 08:48:02 10° WNW 08:57:32 75° SSW 09:07:25 10° SE daylight
05 Nov - 10:53:50 10° WNW 11:01:16 26° SW 11:08:53 10° S daylight
